Location: Beulah
(33.1426°N, 83.0557°W)
Time: 20:20:16
(UTC+00:00)

Envisat - Pass Details

Date: 06 December 2021
Orbit: 764 x 766 km, 98.2° (Epoch: 28 January)

Event Time Altitude Azimuth Distance (km) Brightness Sun altitude
Rises 11:00:51 0° 3° (N) 3,236 6.1 -16.6°
Reaches altitude 10° 11:03:16 10° 356° (N) 2,307 5.3 -16.1°
Maximum altitude 11:08:00 41° 288° (WNW) 1,106 3.3 -15.2°
Drops below altitude 10° 11:12:43 10° 219° (SW) 2,293 5.3 -14.2°
Sets 11:15:07 0° 212° (SSW) 3,215 6.1 -13.7°
